Location: Cerda�ola
(41.4919°N, 2.1403°E)
Time: 01:27:18
(UTC+00:00)

Meteor 2-16 Rocket - Pass Details

Date: 29 March 2020
Orbit: 941 x 957 km, 82.6° (Epoch: 27 May)

Event Time Altitude Azimuth Distance (km) Brightness Sun altitude
Rises 18:48:05 0° 353° (N) 3,643 7.8 -7.2°
Reaches altitude 10° 18:50:36 10° 355° (N) 2,695 7.1 -7.6°
Maximum altitude 18:56:46 77° 81° (E) 984 4.4 -8.8°
Drops below altitude 10° 19:02:55 10° 168° (SSE) 2,678 6.6 -9.9°
Sets 19:05:24 0° 170° (S) 3,619 7.2 -10.3°
